Location: Days
(41.3591°N, 106.7339°W)
Time: 23:54:21
(UTC+00:00)

UWE-3 - Pass Details

Date: 07 July 2022
Orbit: 583 x 677 km, 97.7° (Epoch: 09 August)

Event Time Altitude Azimuth Distance (km) Brightness Sun altitude
Rises 09:10:41 0° 36° (NE) 2,940 ? -20.4°
Reaches altitude 10° 09:14:21 10° 68° (ENE) 2,049 ? -20.1°
Maximum altitude 09:16:01 12° 90° (E) 1,931 ? -19.9°
Drops below altitude 10° 09:17:42 10° 112° (ESE) 2,063 ? -19.7°
Enters shadow 09:20:42 - 140° (SE) 2,769 ? -19.4°
